Temperature
21 19 20 19 19 19 19 19 19 19 19 18 18 18 18 18 18 18 18 18 18 18 18 18 17 17 17 17 17 17 18 18 18 18 18 18 18 17 17 17 17 17 18
21 19 20 19 19 19 18 18 19 19 19 18 18 18 18 18 18 18 18 18 18 18 17 17 17 17 18 18 18 18 18 18 18 18 18 18 17 17 17 17 17 17 18
20 19 19 19 19 19 18 18 18 18 18 18 18 18 18 18 18 18 18 18 17 17 17 17 17 18 18 18 18 18 18 18 18 18 18 17 17 17 17 17 17 17 17
19 19 18 19 19 18 18 18 18 18 18 18 18 18 18 18 18 18 17 17 17 17 17 17 17 17 17 18 18 18 18 18 18 18 17 17 17 17 17 17 17 17 17
19 18 19 19 19 18 18 18 18 18 18 18 18 18 18 18 17 17 17 17 17 17 17 17 17 17 17 17 18 18 18 18 18 18 18 18 17 17 17 17 17 17 17
19 18 19 19 19 19 18 18 18 18 18 18 18 18 18 17 17 17 17 17 17 17 17 17 17 17 17 17 17 18 18 18 18 18 18 17 17 17 17 17 17 17 17
19 19 19 20 19 19 19 19 18 18 18 18 18 18 17 17 17 17 17 17 17 17 17 17 17 17 17 17 17 18 18 18 17 18 17 17 17 17 17 17 17 17 17
19 19 19 20 19 19 19 19 18 18 18 18 18 17 17 17 17 17 17 17 17 17 17 17 17 17 17 17 17 18 18 18 17 17 17 17 17 17 17 17 17 17 17
20 19 19 19 19 19 19 19 18 18 18 18 17 17 17 17 17 17 17 17 17 16 17 17 17 17 17 17 17 17 18 18 17 17 17 16 17 17 17 17 17 17 17
20 19 19 18 18 18 18 18 18 18 18 17 17 17 17 17 17 17 16 17 17 17 17 17 17 17 17 17 17 17 17 17 17 18 17 17 17 17 17 17 17 17 17
19 19 19 19 18 18 17 18 18 18 17 17 17 17 17 16 16 16 16 16 17 17 17 17 17 17 17 17 17 17 17 17 18 17 17 16 17 17 16 16 16 16 16
19 19 19 18 18 18 17 18 17 17 17 16 16 16 16 16 16 16 16 16 16 17 17 17 17 17 17 16 16 17 17 16 17 17 16 16 16 16 16 16 16 16 16
20 19 19 18 18 18 18 17 17 17 16 16 16 16 16 16 16 16 16 16 16 16 16 16 16 16 16 16 16 17 16 17 17 17 16 16 16 16 16 16 16 16 16
20 19 19 18 18 18 18 17 17 17 16 17 16 16 16 16 16 16 16 16 16 16 16 16 16 16 16 16 16 16 16 16 17 17 16 16 16 16 16 16 16 16 16
20 19 19 18 18 18 17 17 17 17 17 16 16 16 16 16 16 16 16 15 16 16 16 16 16 16 16 16 16 16 16 16 16 16 16 15 16 16 16 16 16 16 16
20 19 19 18 19 18 18 17 16 16 16 16 16 16 16 16 16 16 15 15 15 15 15 15 15 15 15 15 15 15 15 15 15 15 15 14 15 15 15 15 15 15 15
19 18 18 18 18 18 17 17 16 16 16 16 16 16 16 16 16 15 15 15 15 15 15 15 15 14 14 14 14 14 14 14 14 13 13 13 13 13 14 14 14 14 14
19 18 18 18 18 18 17 17 16 16 16 16 16 15 16 16 16 15 15 14 15 14 14 14 14 14 14 13 13 13 13 13 12 12 12 12 12 12 12 12 13 13 13
18 18 18 18 18 18 17 17 17 17 16 16 16 15 15 15 15 15 14 14 14 13 13 13 13 13 12 12 12 12 12 12 12 12 11 11 11 11 11 11 11 11 12
17 18 18 18 18 18 17 17 17 16 16 16 15 15 15 15 15 14 13 14 13 12 12 12 12 11 11 11 11 11 11 11 11 11 10 10 10 10 10 10 9 9 9
17 17 17 18 18 17 17 17 16 16 15 15 15 15 14 14 14 13 12 13 12 11 11 11 10 10 10 9 9 10 11 11 11 10 9 9 9 9 8 8 8 8 8
17 17 17 17 17 17 16 16 16 15 15 14 14 14 13 13 13 12 12 11 11 10 9 9 9 9 9 8 8 9 11 12 11 10 9 8 8 8 8 7 7 7 7
16 16 16 16 16 16 16 15 15 14 14 13 13 13 13 12 12 12 11 10 9 9 8 7 7 7 7 7 7 7 9 10 9 9 8 7 7 6 6 6 6 6 6
15 15 15 15 15 15 15 14 14 14 13 13 12 12 12 12 11 10 9 8 8 7 7 6 6 6 6 7 7 6 6 6 6 7 7 7 6 6 6 6 6 6 6
15 14 14 14 14 13 13 13 13 13 12 12 12 11 10 9 9 8 7 6 6 6 5 5 4 4 5 5 6 6 5 5 5 5 6 5 6 6 6 6 6 5 5
14 13 13 13 13 13 13 12 12 12 12 12 11 10 9 8 7 6 6 5 5 5 4 4 4 4 4 3 4 4 5 5 5 5 5 5 5 6 5 5 5 5 5
Wind_Speed
10 14 17 15 13 11 10 11 14 15 15 15 15 15 14 13 11 10 9 8 7 8 9 9 10 10 10 10 10 9 8 7 5 4 4 5 5 4 4 4 5 5 11
12 15 18 16 14 12 11 12 13 15 15 15 14 14 13 12 10 9 7 7 6 7 8 8 9 10 10 9 8 7 6 5 3 1 3 6 6 5 4 3 4 6 7
13 15 17 16 15 13 12 12 13 14 14 14 13 13 11 10 9 7 6 5 5 6 7 8 8 8 8 7 6 4 3 2 1 2 6 7 7 7 5 4 3 5 6
13 14 15 17 15 14 14 13 13 13 13 13 12 11 10 9 7 6 5 4 4 5 6 7 7 7 6 5 4 3 2 1 2 5 9 4 3 9 5 5 6 7 8
12 12 15 17 16 15 15 15 14 14 13 12 10 9 8 7 6 4 4 4 4 5 5 5 6 6 6 5 4 2 2 2 4 10 6 2 1 7 5 4 6 7 9
12 13 16 16 16 16 16 15 14 13 12 11 10 8 7 6 5 4 4 4 4 5 5 5 6 6 6 5 4 4 3 3 9 7 1 2 2 6 4 3 3 5 8
12 12 16 15 16 16 15 14 13 12 11 10 9 8 7 6 5 4 4 4 4 5 5 6 7 7 6 6 5 4 3 5 8 2 2 2 5 7 3 2 1 2 5
12 12 15 14 14 14 14 13 12 12 11 10 9 8 7 6 4 4 3 4 5 5 6 7 7 7 6 6 6 5 4 6 5 1 1 2 8 4 3 2 2 1 0
11 12 13 15 14 13 12 12 12 11 10 9 8 7 6 5 4 4 4 5 5 6 6 6 6 6 6 6 6 5 3 4 4 1 1 2 6 3 2 1 2 1 1
11 10 11 12 13 14 13 12 11 10 9 8 6 6 5 5 5 4 5 6 5 5 5 6 6 5 5 5 5 3 2 7 1 2 2 5 5 3 2 2 3 3 3
10 10 10 11 10 10 11 13 11 10 8 8 8 6 6 5 4 5 7 6 5 5 5 5 5 4 3 6 4 0 5 3 1 1 2 7 4 3 3 3 4 4 4
13 12 10 10 11 10 9 11 9 9 9 7 5 6 5 2 1 1 8 6 5 5 5 5 3 4 7 4 5 5 3 3 4 1 4 6 3 2 3 4 5 5 6
14 12 11 10 9 9 8 8 7 6 6 6 5 4 3 3 3 3 3 6 4 4 4 4 5 3 3 2 4 4 3 6 5 4 3 7 4 2 1 3 4 5 7
14 13 11 11 9 8 7 7 6 6 5 5 5 4 3 3 2 1 2 1 2 2 1 4 3 3 4 4 6 7 6 7 6 5 3 6 4 3 2 1 2 3 5
14 13 12 11 10 8 6 6 6 5 6 5 4 4 2 3 2 2 1 2 4 3 4 4 5 4 6 6 7 7 7 7 7 7 3 7 5 3 3 2 2 2 4
14 13 12 12 11 10 8 6 6 6 4 4 3 1 1 2 1 2 2 1 2 3 4 4 4 4 5 6 7 6 8 9 7 7 9 3 6 4 2 2 3 4 5
13 12 12 12 11 10 9 7 6 5 5 3 3 3 2 1 1 1 1 1 2 2 2 3 4 5 5 6 7 7 8 8 9 8 10 10 8 5 4 1 4 6 7
12 12 12 10 12 10 8 6 5 5 5 4 4 4 5 5 4 2 1 2 3 3 3 3 5 6 6 7 8 8 8 8 10 10 11 11 11 9 6 4 5 9 11
11 12 12 11 11 11 10 8 8 7 6 6 6 6 7 7 5 4 4 4 3 3 4 5 4 6 7 7 9 9 9 9 9 11 11 12 12 11 12 8 9 12 13
11 11 11 12 12 12 10 9 8 8 7 8 8 8 8 7 7 4 4 5 5 4 4 5 5 4 6 6 9 10 10 11 10 11 11 11 11 13 14 14 13 13 13
11 12 12 13 12 10 8 8 7 7 7 7 8 9 8 7 7 6 4 4 4 4 4 5 5 6 6 5 8 11 11 12 11 9 9 9 11 12 13 14 14 14 13
12 12 12 13 12 10 8 7 6 7 6 7 7 8 7 7 6 5 5 3 3 2 2 3 4 6 7 6 8 11 11 12 9 7 7 9 11 11 13 14 14 13 14
12 12 11 12 12 12 12 9 9 7 6 6 6 5 5 5 5 5 3 3 3 4 4 5 5 6 8 8 6 7 9 10 11 9 9 9 11 11 12 14 15 15 15
12 11 12 12 11 11 11 11 10 7 6 5 4 4 4 4 3 3 4 4 5 5 5 6 5 7 7 8 7 5 7 10 9 9 9 10 12 13 14 13 14 15 16
13 12 12 13 12 11 10 10 9 7 7 6 4 4 1 2 3 4 4 4 4 5 5 6 5 6 7 7 8 8 8 8 11 12 14 13 13 13 13 13 13 14 16
13 13 13 13 12 11 10 9 9 9 7 6 3 2 0 1 1 2 3 4 4 5 4 5 5 6 5 6 7 8 8 9 10 11 14 14 14 14 14 13 14 13 14
Wind_Direction
153 143 140 149 148 141 132 120 111 109 109 108 108 108 109 109 109 109 107 104 99 93 88 84 82 79 77 75 74 74 75 80 87 102 117 130 138 146 147 149 197 156 107
146 142 142 149 149 145 138 130 119 114 113 110 108 107 108 109 110 110 111 107 101 97 92 88 85 84 83 81 80 79 79 80 80 115 184 183 173 180 190 201 293 79 128
144 142 148 149 149 147 144 137 129 123 120 118 117 116 116 115 116 115 116 113 109 104 98 91 87 87 87 87 86 83 79 72 29 266 246 226 174 172 193 203 195 138 159
145 149 150 147 149 149 148 144 137 134 131 128 126 124 122 119 117 116 116 110 101 95 90 87 83 81 81 80 77 69 51 13 286 260 243 233 179 144 176 191 188 181 180
145 148 140 151 152 152 152 150 146 144 141 138 135 131 127 123 116 109 108 103 95 87 82 80 80 76 72 67 58 38 3 316 265 253 262 260 193 129 169 185 193 196 194
148 150 145 157 156 157 157 154 151 148 146 143 140 136 133 128 121 111 103 98 91 84 81 83 87 83 75 65 51 28 357 300 265 252 276 257 151 118 153 171 193 204 204
149 149 149 159 158 159 160 157 153 150 145 142 139 138 134 129 120 107 98 94 90 86 84 88 92 84 73 63 53 38 12 307 277 279 242 224 80 87 107 118 122 200 212
150 150 142 155 159 161 161 158 154 148 143 140 139 137 133 127 117 105 91 90 94 94 93 94 90 85 78 70 60 48 20 308 256 268 215 118 79 63 60 52 34 23 230
151 151 152 159 161 163 161 159 153 147 142 138 136 135 132 126 117 105 100 96 96 96 96 97 94 89 83 73 63 54 29 313 275 166 173 94 76 41 14 351 324 310 289
156 155 156 158 159 164 163 159 154 148 143 140 139 140 145 158 152 135 147 103 97 98 101 102 99 97 98 90 76 57 314 264 275 198 153 88 53 6 328 313 303 295 288
162 163 167 160 163 165 159 153 161 156 153 165 167 161 202 202 168 165 85 89 95 98 104 105 103 112 160 147 121 74 262 280 175 332 59 57 20 339 319 308 297 290 285
172 174 171 165 166 169 161 158 171 174 165 193 168 175 197 158 187 92 115 111 109 117 135 124 141 196 239 204 164 213 254 277 281 227 81 59 23 334 304 294 287 282 278
173 173 173 170 175 168 165 168 169 169 160 180 175 182 181 204 193 204 183 163 164 188 195 156 213 230 265 302 296 277 293 284 278 270 93 71 46 21 311 283 273 270 268
175 175 173 168 173 179 169 164 171 171 169 173 160 200 188 204 224 223 248 280 239 219 274 270 259 251 271 270 273 279 270 269 277 285 92 89 67 57 46 349 298 282 275
176 174 173 173 168 171 171 177 176 169 168 156 170 177 222 233 233 229 256 288 288 296 262 267 282 289 284 271 274 278 282 282 281 280 232 116 100 80 65 45 6 331 308
177 175 170 174 170 172 175 176 171 167 159 159 162 135 256 282 291 264 244 284 307 313 327 308 305 291 283 295 286 285 284 285 278 281 282 205 146 128 76 24 353 332 317
178 173 171 172 167 173 174 172 166 155 155 141 115 89 63 42 56 304 330 304 353 344 323 302 302 290 287 287 282 282 279 280 285 280 279 278 259 186 161 281 318 313 305
178 170 170 167 162 161 151 145 138 128 121 113 103 90 74 69 65 45 33 32 10 338 327 322 309 302 300 296 295 291 286 278 270 273 272 269 275 279 253 226 286 293 290
175 168 166 158 153 145 134 124 111 104 100 101 94 87 80 72 67 59 50 39 357 348 342 327 334 318 307 306 299 289 283 282 283 274 273 273 273 273 278 269 267 274 277
169 164 156 146 139 134 126 116 110 104 103 96 88 81 78 73 61 54 67 37 1 354 351 356 334 324 313 309 301 294 283 277 274 270 266 264 267 270 276 286 285 275 264
162 157 152 146 139 136 131 129 125 117 112 102 92 85 79 71 64 46 43 45 11 16 0 339 325 306 292 305 297 291 279 264 258 263 265 275 278 281 284 284 282 285 284
161 154 149 146 142 136 127 118 117 118 110 101 95 85 78 73 63 63 41 19 19 339 318 326 321 312 304 299 302 303 295 286 258 261 274 277 285 293 289 287 287 283 280
155 151 147 142 139 133 132 127 130 127 130 123 112 101 84 82 78 66 53 11 346 310 328 325 313 313 312 305 300 303 304 306 320 293 282 281 285 286 288 289 284 281 278
143 136 136 133 134 135 141 145 150 146 139 127 127 110 107 83 60 43 23 3 341 330 332 309 339 312 302 302 304 287 289 305 296 297 292 289 289 286 283 284 285 283 278
137 134 133 132 132 133 134 135 136 129 124 128 122 109 98 81 39 17 4 352 338 326 337 326 317 307 304 303 308 303 297 288 277 279 290 292 289 286 286 285 284 282 280
134 133 134 132 130 131 130 129 123 120 120 119 114 104 286 11 357 8 342 339 321 331 325 313 308 295 306 312 304 301 297 296 296 296 294 292 291 291 292 291 285 278 275
Height
1539 1539 1539 1542 1544 1546 1547 1549 1551 1552 1554 1555 1556 1557 1558 1559 1559 1560 1561 1562 1563 1564 1565 1566 1567 1567 1568 1568 1568 1568 1569 1569 1569 1569 1569 1568 1568 1568 1568 1567 1567 1570 1568
1539 1539 1539 1542 1544 1546 1548 1550 1552 1553 1554 1556 1557 1558 1558 1559 1560 1561 1562 1563 1564 1565 1566 1566 1567 1567 1568 1568 1569 1569 1569 1569 1569 1569 1569 1569 1569 1569 1569 1569 1569 1570 1569
1539 1540 1540 1542 1545 1547 1548 1550 1552 1554 1555 1556 1557 1558 1559 1560 1561 1562 1563 1564 1565 1566 1566 1567 1567 1567 1568 1568 1568 1569 1569 1569 1569 1569 1569 1570 1571 1570 1570 1569 1569 1569 1569
1540 1541 1542 1543 1545 1547 1549 1551 1552 1554 1555 1556 1558 1558 1559 1560 1561 1563 1564 1565 1565 1566 1566 1567 1567 1567 1567 1568 1568 1568 1568 1569 1569 1569 1571 1572 1572 1570 1570 1570 1570 1569 1569
1540 1542 1542 1544 1545 1547 1549 1551 1553 1554 1556 1557 1558 1559 1560 1561 1562 1563 1564 1565 1565 1566 1566 1567 1567 1567 1567 1567 1567 1568 1568 1568 1568 1569 1572 1572 1571 1569 1569 1569 1569 1569 1569
1541 1543 1543 1544 1546 1548 1550 1552 1553 1555 1556 1557 1558 1559 1560 1561 1562 1563 1564 1565 1565 1566 1566 1566 1566 1567 1567 1567 1567 1567 1567 1568 1568 1571 1571 1571 1570 1569 1569 1569 1569 1569 1569
1543 1544 1544 1545 1547 1549 1551 1552 1554 1555 1556 1557 1559 1559 1560 1561 1562 1563 1564 1565 1565 1566 1566 1566 1566 1566 1566 1566 1566 1566 1567 1567 1568 1570 1570 1570 1569 1567 1568 1568 1568 1568 1568
1544 1545 1544 1546 1548 1550 1551 1553 1554 1555 1556 1558 1559 1560 1560 1561 1562 1563 1564 1564 1564 1565 1565 1565 1565 1565 1565 1565 1565 1565 1565 1566 1568 1569 1568 1568 1566 1566 1566 1566 1566 1566 1566
1545 1546 1547 1547 1548 1550 1551 1553 1555 1556 1557 1558 1559 1560 1561 1561 1562 1563 1563 1563 1563 1564 1564 1564 1564 1564 1564 1564 1564 1564 1564 1565 1568 1568 1567 1567 1564 1565 1565 1565 1565 1565 1565
1545 1547 1549 1550 1551 1551 1552 1553 1554 1556 1557 1558 1559 1560 1561 1561 1562 1562 1563 1562 1563 1563 1563 1563 1563 1563 1563 1563 1563 1563 1564 1565 1567 1567 1567 1565 1563 1564 1564 1564 1564 1564 1564
1544 1546 1549 1550 1551 1553 1554 1553 1554 1555 1556 1558 1559 1559 1561 1563 1563 1563 1562 1562 1562 1562 1562 1562 1562 1563 1563 1563 1563 1563 1564 1566 1567 1566 1565 1563 1563 1563 1563 1563 1564 1564 1563
1543 1545 1548 1549 1550 1553 1554 1553 1555 1557 1557 1559 1560 1560 1562 1562 1562 1562 1561 1561 1562 1562 1562 1562 1562 1563 1564 1565 1564 1564 1565 1565 1566 1565 1564 1562 1562 1563 1563 1563 1563 1563 1563
1542 1544 1547 1548 1550 1553 1554 1555 1556 1557 1557 1559 1559 1560 1560 1561 1562 1563 1563 1563 1562 1562 1563 1563 1563 1564 1564 1564 1564 1565 1564 1564 1564 1564 1562 1560 1561 1561 1561 1561 1561 1561 1561
1541 1543 1545 1546 1548 1551 1553 1554 1555 1557 1557 1559 1558 1559 1561 1561 1562 1562 1563 1563 1563 1564 1563 1564 1564 1564 1563 1563 1563 1563 1563 1563 1562 1562 1559 1558 1558 1558 1558 1558 1558 1558 1558
1539 1541 1543 1545 1546 1548 1550 1553 1555 1556 1557 1558 1558 1559 1559 1561 1562 1562 1562 1561 1563 1563 1563 1563 1563 1562 1562 1562 1562 1561 1561 1560 1559 1559 1558 1554 1554 1554 1554 1554 1553 1553 1553
1537 1539 1541 1543 1544 1546 1548 1551 1553 1555 1555 1557 1557 1558 1558 1560 1560 1560 1560 1560 1560 1560 1560 1560 1560 1559 1559 1559 1558 1557 1556 1556 1555 1553 1554 1552 1549 1548 1548 1548 1548 1547 1547
1536 1538 1539 1541 1543 1545 1548 1550 1552 1553 1554 1555 1555 1556 1556 1557 1557 1558 1558 1558 1558 1557 1556 1557 1556 1556 1555 1555 1554 1553 1552 1551 1551 1549 1548 1548 1547 1543 1541 1541 1541 1540 1540
1534 1535 1537 1540 1541 1543 1546 1548 1550 1552 1552 1553 1553 1554 1554 1554 1555 1555 1556 1556 1554 1555 1554 1554 1553 1553 1552 1551 1550 1549 1548 1546 1544 1543 1542 1541 1541 1539 1536 1533 1532 1532 1531
1531 1533 1535 1538 1540 1542 1544 1546 1548 1549 1550 1551 1551 1551 1551 1552 1552 1553 1553 1552 1552 1552 1551 1550 1549 1548 1547 1545 1544 1543 1541 1540 1538 1536 1535 1534 1533 1530 1529 1527 1524 1522 1522
1527 1530 1532 1535 1537 1540 1542 1544 1546 1547 1548 1548 1548 1549 1549 1549 1549 1550 1549 1548 1549 1548 1547 1545 1543 1542 1541 1539 1537 1536 1534 1532 1530 1529 1528 1527 1525 1523 1522 1520 1517 1515 1512
1523 1525 1528 1531 1534 1537 1540 1542 1544 1544 1545 1545 1546 1546 1546 1546 1546 1547 1546 1545 1544 1543 1541 1540 1539 1538 1536 1534 1532 1530 1528 1526 1523 1522 1521 1520 1519 1518 1515 1513 1510 1508 1506
1518 1521 1524 1527 1530 1533 1537 1540 1541 1542 1542 1543 1543 1543 1543 1543 1543 1542 1542 1541 1539 1538 1536 1535 1534 1533 1532 1531 1529 1526 1523 1522 1519 1518 1516 1515 1514 1512 1509 1507 1504 1501 1499
1514 1517 1520 1523 1526 1529 1532 1536 1538 1539 1540 1540 1540 1540 1540 1540 1539 1538 1537 1536 1535 1535 1534 1531 1529 1529 1529 1527 1526 1525 1522 1517 1516 1515 1513 1511 1509 1506 1503 1501 1498 1496 1493
1509 1513 1516 1520 1523 1526 1528 1531 1534 1536 1537 1538 1538 1537 1537 1536 1535 1534 1533 1532 1531 1532 1530 1529 1528 1526 1525 1524 1523 1521 1520 1517 1515 1510 1509 1507 1504 1501 1498 1495 1492 1490 1487
1506 1510 1514 1517 1521 1523 1526 1529 1531 1533 1534 1535 1535 1534 1534 1533 1532 1531 1530 1529 1528 1528 1526 1525 1523 1522 1522 1521 1520 1518 1516 1514 1512 1508 1504 1502 1499 1496 1493 1490 1486 1484 1481
1503 1507 1511 1515 1518 1521 1524 1527 1529 1530 1531 1531 1532 1532 1532 1532 1530 1529 1528 1526 1526 1525 1524 1522 1521 1520 1518 1516 1515 1514 1512 1510 1507 1504 1500 1496 1493 1490 1487 1484 1480 1477 1475